Annapolis, MD

11:35 PM EST on February 26, 2017 (GMT -0500)
Annapolis Naval Academy

Weather History for KNAK - July, 2014

Change the Weather History Date:

Tuesday, July 22, 2014

  Actual Average (KBWI) Record (KBWI)
Temperature  
Mean Temperature 77 °F -  
Max Temperature 82 °F 87 °F 106 °F (2011)
Min Temperature 72 °F 68 °F 53 °F (1966)
Cooling Degree Days 12    
Growing Degree Days 27 (Base 50)    
Moisture  
Dew Point 67 °F    
Average Humidity 74    
Maximum Humidity 91    
Minimum Humidity 52    
Precipitation  
Precipitation 0.00 in - - ()
Sea Level Pressure  
Sea Level Pressure 30.15 in    
Wind  
Wind Speed 5 mph (South)    
Max Wind Speed 13 mph    
Max Gust Speed -    
Visibility 10 miles    
Events      
Averages and records for this station are not official NWS values.
T = Trace of Precipitation, MM = Missing Value Source: NWS Daily Summary

Daily Weather History Graph

Daily Weather History Graph

Search for Another Location

Airport or City:

Trip Planner

Search our weather history database for the weather conditions in past years. The results will help you decide how hot, cold, wet, or windy it might be!

Date:

Astronomy

Jul. 22, 2014 Rise Set
Actual Time 5:58 AM EDT 8:26 PM EDT
Civil Twilight 5:27 AM EDT 8:56 PM EDT
Nautical Twilight 4:49 AM EDT 9:34 PM EDT
Astronomical Twilight 4:07 AM EDT 10:16 PM EDT
Moon 2:29 AM EDT (7/22) 5:02 PM EDT (7/22)
Length of Visible Light 15h 29m
Length of Day
14h 28m
Waning Crescent, 16% of the Moon is Illuminated
Jul 22
Waning Crescent
Jul 26
New
Aug 3
First Quarter
Aug 10
Full
Aug 17
Last Quarter

Hourly Weather History & Observations

Time (EDT) Temp. Heat Index Dew Point Humidity Pressure Visibility Wind Dir Wind Speed Gust Speed Precip Events Conditions
12:54 AM 73.9 °F - 68.0 °F 82% 30.18 in 10.0 mi SSW 5.8 mph - N/A   Mostly Cloudy
1:05 AM 73.9 °F - 68.0 °F 82% 30.17 in 10.0 mi SSW 3.5 mph - N/A   Mostly Cloudy
1:39 AM 73.9 °F - 68.0 °F 82% 30.17 in 10.0 mi SSW 5.8 mph - N/A   Scattered Clouds
1:54 AM 73.9 °F - 69.1 °F 85% 30.17 in 10.0 mi South 3.5 mph - N/A   Scattered Clouds
2:09 AM 73.9 °F - 69.1 °F 85% 30.17 in 10.0 mi Variable 3.5 mph - N/A   Mostly Cloudy
2:23 AM 73.0 °F - 68.0 °F 84% 30.17 in 10.0 mi South 3.5 mph - N/A   Scattered Clouds
2:54 AM 73.0 °F - 68.0 °F 84% 30.17 in 10.0 mi Variable 4.6 mph - N/A   Clear
3:54 AM 72.0 °F - 68.0 °F 87% 30.16 in 10.0 mi Calm Calm - N/A   Clear
4:54 AM 72.0 °F - 68.0 °F 87% 30.16 in 10.0 mi Calm Calm - N/A   Clear
5:54 AM 72.0 °F - 69.1 °F 91% 30.18 in 10.0 mi Calm Calm - N/A   Mostly Cloudy
6:13 AM 73.0 °F - 69.1 °F 87% 30.18 in 10.0 mi Calm Calm - N/A   Overcast
6:54 AM 73.0 °F - 69.1 °F 87% 30.19 in 10.0 mi Calm Calm - N/A   Overcast
7:54 AM 75.0 °F - 69.1 °F 82% 30.20 in 10.0 mi Calm Calm - N/A   Partly Cloudy
8:54 AM 75.9 °F - 70.0 °F 82% 30.20 in 10.0 mi SSE 4.6 mph - N/A   Partly Cloudy
9:54 AM 77.0 °F - 71.1 °F 82% 30.20 in 10.0 mi SE 8.1 mph - N/A   Overcast
10:13 AM 78.1 °F - 71.1 °F 79% 30.19 in 10.0 mi SE 8.1 mph - N/A   Overcast
10:45 AM 79.0 °F - 70.0 °F 74% 30.18 in 10.0 mi ESE 9.2 mph - N/A   Mostly Cloudy
10:54 AM 78.1 °F - 69.1 °F 74% 30.19 in 10.0 mi ESE 9.2 mph - N/A   Scattered Clouds
11:54 AM 80.1 °F 82.7 °F 68.0 °F 67% 30.18 in 10.0 mi SE 12.7 mph - N/A   Scattered Clouds
12:54 PM 81.0 °F 82.2 °F 63.0 °F 54% 30.17 in 10.0 mi South 9.2 mph - N/A   Overcast
1:54 PM 81.0 °F 81.9 °F 62.1 °F 52% 30.17 in 10.0 mi South 10.4 mph - N/A   Overcast
2:54 PM 82.0 °F 84.1 °F 66.0 °F 58% 30.15 in 10.0 mi SSE 8.1 mph - N/A   Overcast
3:54 PM 82.9 °F 85.4 °F 66.9 °F 58% 30.13 in 10.0 mi SSE 8.1 mph - N/A   Scattered Clouds
4:54 PM 82.9 °F 84.6 °F 64.9 °F 54% 30.12 in 10.0 mi SSE 12.7 mph - N/A   Clear
5:54 PM 82.9 °F 84.4 °F 64.0 °F 53% 30.10 in 10.0 mi South 12.7 mph - N/A   Clear
6:54 PM 82.0 °F 83.4 °F 64.0 °F 54% 30.09 in 10.0 mi South 6.9 mph - N/A   Clear
7:54 PM 80.1 °F 81.9 °F 64.9 °F 60% 30.09 in 10.0 mi South 11.5 mph - N/A   Clear
8:54 PM 79.0 °F - 64.9 °F 62% 30.09 in 10.0 mi South 9.2 mph - N/A   Clear
9:54 PM 78.1 °F - 66.0 °F 66% 30.10 in 10.0 mi South 5.8 mph - N/A   Clear
10:54 PM 77.0 °F - 66.9 °F 71% 30.09 in 10.0 mi South 4.6 mph - N/A   Clear
11:54 PM 75.9 °F - 66.9 °F 74% 30.08 in 10.0 mi South 5.8 mph - N/A   Clear